This demonstration page uses our WeatherBlox Daily Observations layout. Learn more.

Left ArrowRight Arrow

41.55636, -103.73856

Hourly Observations for October 18, 2015

Temp ( °F °C ) Dew Point ( °F °C ) Humidity (%) Winds ( mph kmh ) Pressure ( in mb ) Visibility ( mi km ) Precip ( " mm )
12:53 am 00:53 Clear 45 7.2 36 2.2 71 71 E 6 9 30.04 1017 10 16.0934 0 0
1:53 am 01:53 Clear 44 6.7 36 2.2 73 73 E 7 11 30.02 1017 10 16.0934 0 0
2:53 am 02:53 Clear 42 5.6 35 1.7 76 76 ESE 8 13 30.01 1016 10 16.0934 0 0
3:53 am 03:53 Clear 41 5 34 1.1 76 76 E 8 13 29.99 1016 10 16.0934 0 0
4:53 am 04:53 Clear 40 4.4 33 0.6 77 77 ESE 5 7 30 1016 10 16.0934 0 0
5:53 am 05:53 Clear 38 3.3 33 0.6 83 83 ESE 6 9 30.02 1017 10 16.0934 0 0
6:53 am 06:53 Clear 37 2.8 32 0 82 82 E 5 7 30.03 1017 10 16.0934 0 0
7:53 am 07:53 Sunny 39 3.9 33 0.6 79 79 E 5 7 30.03 1017 10 16.0934 0 0
8:53 am 08:53 Sunny 44 6.7 35 1.7 71 71 Calm 30.05 1018 10 16.0934 0 0
9:53 am 09:53 Sunny 51 10.6 37 2.8 59 59 Calm 30.03 1017 10 16.0934 0 0
10:53 am 10:53 Sunny 56 13.3 39 3.9 53 53 Calm 30.01 1016 10 16.0934 0 0
11:53 am 11:53 Sunny 63 17.2 41 5 45 45 ESE 3 6 29.97 1015 10 16.0934 0 0
12:53 pm 12:53 Sunny 71 21.7 43 6.1 36 36 SE 3 6 29.92 1013 10 16.0934 0 0
1:53 pm 13:53 Sunny 78 25.6 43 6.1 29 29 WNW 5 7 29.88 1012 10 16.0934 0 0
2:53 pm 14:53 Sunny 81 27.2 42 5.6 25 25 WNW 5 7 29.85 1011 10 16.0934 0 0
3:53 pm 15:53 Partly Cloudy 79 26.1 43 6.1 28 28 WSW 3 6 29.85 1011 10 16.0934 0 0
4:53 pm 16:53 Sunny 75 23.9 47 8.3 37 37 SSE 7 11 29.84 1011 10 16.0934 0 0
5:53 pm 17:53 Cloudy 72 22.2 47 8.3 41 41 SSE 7 11 29.87 1012 10 16.0934 0 0
6:53 pm 18:53 Mostly Clear 69 20.6 45 7.2 42 42 Calm 29.89 1012 10 16.0934 0 0
7:53 pm 19:53 Mostly Clear 63 17.2 45 7.2 52 52 Calm 29.91 1013 10 16.0934 0 0
8:53 pm 20:53 Clear 58 14.4 44 6.7 60 60 WNW 5 7 29.91 1013 10 16.0934 0 0
9:53 pm 21:53 Clear 55 12.8 45 7.2 69 69 Calm 29.91 1013 10 16.0934 0 0
10:53 pm 22:53 Clear 54 12.2 43 6.1 67 67 NNE 3 6 29.9 1013 10 16.0934 0 0
11:53 pm 23:53 Partly Cloudy 51 10.6 43 6.1 74 74 Calm 29.89 1012 10 16.0934 0 0

Powered by AerisWeather